Tracking 20475 objects as of 27-Feb-2020
HD Live streaming from Space Station
objects crossing your sky now

COSMOS 2499

Track COSMOS 2499 now!
10-day predictions
COSMOS 2499 is classified as:


NORAD ID: 39765
Int'l Code: 2014-028E
Perigee: 1,158.5 km
Apogee: 1,515.2 km
Inclination: 82.4 °
Period: 112.2 minutes
Semi major axis: 7707 km
RCS: Unknown
Launch date: May 23, 2014
Source: Commonwealth of Independent States (former USSR) (CIS)
Launch site: PLESETSK MISSILE AND SPACE COMPLEX (PKMTR)
aabbcc
Your satellite tracking list
Your tracking list is empty




NASA's NSSDC Master Catalog

Two Line Element Set (TLE):
1 39765U 14028E   20057.63371615  .00000018  00000-0  24961-4 0  9996
2 39765  82.4491   6.7540 0231421   7.5201 352.9250 12.82925243269999
Source of the keplerian elements: Caltech